Nuiqsut, AK

2:32 PM AKST on February 24, 2017 (GMT -0900)
Nuiqsut

Weather History for PAQT - January, 2012

Change the Weather History Date:

Monday, January 9, 2012

  Actual Average (PAKU) Record (PAKU)
Temperature  
Mean Temperature -26 °F -  
Max Temperature -18 °F -6 °F 30 °F (2011)
Min Temperature -35 °F -15 °F -41 °F (2008)
Degree Days  
Heating Degree Days 92    
Moisture  
Dew Point -29 °F    
Average Humidity 77    
Maximum Humidity 83    
Minimum Humidity 73    
Precipitation  
Precipitation 0.00 in - - ()
Sea Level Pressure  
Sea Level Pressure 29.76 in    
Wind  
Wind Speed 16 mph (SSW)    
Max Wind Speed 21 mph    
Max Gust Speed 23 mph    
Visibility 9 miles    
Events      
Averages and records for this station are not official NWS values.
T = Trace of Precipitation, MM = Missing Value Source: NWS Daily Summary

Daily Weather History Graph

Daily Weather History Graph

Search for Another Location

Airport or City:

Trip Planner

Search our weather history database for the weather conditions in past years. The results will help you decide how hot, cold, wet, or windy it might be!

Date:

Astronomy

Jan. 09, 2012 Rise Set
Actual Time 12:38 PM AKST 1:43 PM AKST
Civil Twilight 10:41 AM AKST 3:41 PM AKST
Nautical Twilight 9:02 AM AKST 5:20 PM AKST
Astronomical Twilight 7:44 AM AKST 6:38 PM AKST
Moon 3:53 PM AKST (1/9) 11:42 AM AKST (1/9)
Length of Visible Light 4h 59m
Length of Day
1h 04m
Full, 100% of the Moon is Illuminated
Jan 9
Full
Jan 16
Last Quarter
Jan 22
New
Jan 30
First Quarter
Feb 7
Full

Hourly Weather History & Observations

Time (AKST) Temp. Windchill Dew Point Humidity Pressure Visibility Wind Dir Wind Speed Gust Speed Precip Events Conditions
12:53 AM -23.1 °F -50.5 °F -27.0 °F 82% 29.60 in 10.0 mi South 17.3 mph - N/A   Partly Cloudy
1:29 AM -20.2 °F -47.5 °F -25.6 °F 76% 29.61 in 6.0 mi SSW 18.4 mph - N/A   Haze
1:37 AM -20.2 °F -48.2 °F -25.6 °F 76% 29.61 in 6.0 mi SSW 19.6 mph - N/A   Haze
1:53 AM -20.9 °F -49.8 °F -26.0 °F 77% 29.62 in 5.0 mi SSW 20.7 mph - N/A   Haze
2:12 AM -22.0 °F -49.9 °F -27.4 °F 76% 29.62 in 7.0 mi SSW 18.4 mph - N/A   Mostly Cloudy
2:44 AM -20.2 °F -46.0 °F -25.6 °F 76% 29.63 in 6.0 mi SSW 16.1 mph - N/A   Haze
3:19 AM -23.8 °F -44.5 °F -27.4 °F 83% 29.64 in 8.0 mi South 9.2 mph - N/A   Mostly Cloudy
3:50 AM -18.4 °F -46.5 °F -23.8 °F 76% 29.64 in 5.0 mi SSW 20.7 mph - N/A   Haze
3:53 AM -20.0 °F -47.3 °F -25.1 °F 78% 29.65 in 6.0 mi SSW 18.4 mph - N/A   Haze
4:05 AM -23.8 °F -50.7 °F -27.4 °F 83% 29.64 in 9.0 mi SSW 16.1 mph - N/A   Overcast
4:29 AM -23.8 °F -49.8 °F -27.4 °F 83% 29.65 in 9.0 mi South 15.0 mph - N/A   Scattered Clouds
4:53 AM -23.1 °F -52.0 °F -27.9 °F 78% 29.66 in 9.0 mi SSW 19.6 mph 23.0 mph N/A   Partly Cloudy
5:53 AM -26.0 °F -55.0 °F -31.0 °F 77% 29.68 in 9.0 mi SSW 18.4 mph - N/A   Clear
7:53 AM -25.1 °F -46.1 °F -29.9 °F 78% 29.74 in 10.0 mi SSW 9.2 mph - N/A   Clear
8:53 AM -26.0 °F -55.0 °F -31.0 °F 77% 29.75 in 10.0 mi SSW 18.4 mph - N/A   Mostly Cloudy
9:53 AM -26.0 °F -52.6 °F -32.1 °F 73% 29.78 in 9.0 mi SSW 15.0 mph - N/A   Clear
10:53 AM -29.0 °F -55.6 °F -33.0 °F 81% 29.80 in 10.0 mi SSW 13.8 mph - N/A   Clear
11:53 AM -27.0 °F -54.0 °F -32.1 °F 77% 29.83 in 10.0 mi SSW 15.0 mph - N/A   Clear
12:53 PM -26.0 °F -50.7 °F -32.1 °F 73% 29.85 in 10.0 mi SW 12.7 mph - N/A   Clear
1:53 PM -27.0 °F -52.1 °F -32.1 °F 77% 29.87 in 10.0 mi SSW 12.7 mph - N/A   Clear
2:53 PM -26.0 °F -49.6 °F -32.1 °F 73% 29.89 in 10.0 mi South 11.5 mph - N/A   Clear
3:53 PM -29.0 °F -52.3 °F -35.0 °F 73% 29.91 in 10.0 mi South 10.4 mph - N/A   Clear
4:53 PM -29.9 °F -57.7 °F - N/A% 29.91 in 10.0 mi SSW 15.0 mph - N/A   Clear
5:53 PM -31.0 °F -59.1 °F - N/A% 29.92 in 10.0 mi South 15.0 mph - N/A   Clear
6:53 PM -29.9 °F -56.7 °F - N/A% 29.91 in 10.0 mi SSW 13.8 mph - N/A   Clear
7:53 PM -33.0 °F -59.6 °F - N/A% 29.91 in 10.0 mi SSW 12.7 mph - N/A   Clear
8:53 PM -32.1 °F -58.4 °F - N/A% 29.90 in 10.0 mi SSW 12.7 mph - N/A   Clear
9:53 PM -32.1 °F -49.6 °F - N/A% 29.90 in 10.0 mi South 5.8 mph - N/A   Clear
10:53 PM -35.0 °F -53.1 °F - N/A% 29.90 in 10.0 mi South 5.8 mph - N/A   Clear
11:53 PM -34.1 °F - - N/A% 29.91 in 10.0 mi Calm Calm - N/A   Clear